Pompano Beach, FL

12:34 PM EDT on April 28, 2017 (GMT -0400)
Pompano Beach

Weather History for KPMP - October, 2012

Change the Weather History Date:

Monday, October 8, 2012

  Actual Average Record
Temperature  
Mean Temperature 78 °F -  
Max Temperature 82 °F 88 °F 94 °F (1981)
Min Temperature 73 °F 71 °F 64 °F (1979)
Cooling Degree Days 12    
Growing Degree Days 28 (Base 50)    
Moisture  
Dew Point 76 °F    
Average Humidity 91    
Maximum Humidity 100    
Minimum Humidity 82    
Precipitation  
Precipitation 0.12 in - - ()
Sea Level Pressure  
Sea Level Pressure 29.97 in    
Wind  
Wind Speed 5 mph (East)    
Max Wind Speed 9 mph    
Max Gust Speed -    
Visibility 10 miles    
Events Rain , Thunderstorm    
Averages and records for this station are not official NWS values.
T = Trace of Precipitation, MM = Missing Value Source: NWS Daily Summary

Daily Weather History Graph

Daily Weather History Graph

Search for Another Location

Airport or City:

Trip Planner

Search our weather history database for the weather conditions in past years. The results will help you decide how hot, cold, wet, or windy it might be!

Date:

Astronomy

Oct. 08, 2012 Rise Set
Actual Time 7:16 AM EDT 6:58 PM EDT
Civil Twilight 6:53 AM EDT 7:22 PM EDT
Nautical Twilight 6:26 AM EDT 7:48 PM EDT
Astronomical Twilight 5:59 AM EDT 8:15 PM EDT
Moon 12:31 AM EDT (10/8) 2:12 PM EDT (10/8)
Length of Visible Light 12h 28m
Length of Day
11h 42m
Waning Gibbous, 46% of the Moon is Illuminated
Oct 8
Waning Gibbous
Oct 15
New
Oct 21
First Quarter
Oct 29
Full
Nov 6
Last Quarter

Hourly Weather History & Observations

Time (EDT) Temp. Heat Index Dew Point Humidity Pressure Visibility Wind Dir Wind Speed Gust Speed Precip Events Conditions
12:53 AM 79.0 °F - 75.9 °F 90% 29.95 in 10.0 mi East 4.6 mph - N/A   Clear
1:53 AM 79.0 °F - 75.0 °F 88% 29.94 in 10.0 mi East 6.9 mph - N/A   Partly Cloudy
2:53 AM 79.0 °F - 75.9 °F 90% 29.93 in 10.0 mi East 6.9 mph - N/A   Partly Cloudy
3:53 AM 79.0 °F - 75.9 °F 90% 29.92 in 10.0 mi ESE 9.2 mph - N/A   Scattered Clouds
4:03 AM 78.8 °F - 75.2 °F 89% 29.93 in 10.0 mi East 8.1 mph - N/A Thunderstorm Scattered Clouds
4:35 AM 78.8 °F - 75.2 °F 89% 29.93 in 10.0 mi East 6.9 mph - N/A   Clear
4:53 AM 78.1 °F - 75.0 °F 90% 29.94 in 10.0 mi East 8.1 mph - N/A   Clear
5:53 AM 78.1 °F - 73.9 °F 87% 29.95 in 10.0 mi East 4.6 mph - N/A   Clear
6:53 AM 77.0 °F - 75.9 °F 96% 29.98 in 10.0 mi ENE 4.6 mph - N/A   Clear
7:53 AM 78.1 °F - 75.9 °F 93% 29.98 in 10.0 mi ENE 3.5 mph - N/A   Scattered Clouds
8:53 AM 75.0 °F - 73.9 °F 96% 30.01 in 10.0 mi SE 9.2 mph - 0.02 in Rain Light Rain
9:53 AM 73.9 °F - 73.9 °F 100% 30.01 in 6.0 mi South 4.6 mph - 0.02 in Rain Rain
10:53 AM 75.9 °F - 75.9 °F 100% 30.03 in 7.0 mi Calm Calm - 0.06 in Rain Light Rain
11:53 AM 79.0 °F - 75.9 °F 90% 30.02 in 10.0 mi Calm Calm - 0.02 in   Scattered Clouds
12:53 PM 80.1 °F 85.1 °F 75.0 °F 85% 30.00 in 10.0 mi ESE 3.5 mph - N/A   Clear
1:53 PM 80.1 °F 85.4 °F 75.9 °F 87% 29.98 in 10.0 mi Calm Calm - 0.00 in   Clear
2:53 PM 82.0 °F 90.2 °F 77.0 °F 85% 29.95 in 10.0 mi ESE 6.9 mph - N/A   Partly Cloudy
3:53 PM 81.0 °F 87.9 °F 77.0 °F 88% 29.94 in 10.0 mi ENE 5.8 mph - N/A   Clear
4:53 PM 82.0 °F 89.4 °F 75.9 °F 82% 29.94 in 10.0 mi ENE 6.9 mph - N/A   Clear
5:53 PM 81.0 °F 87.3 °F 75.9 °F 85% 29.93 in 10.0 mi NE 5.8 mph - N/A   Clear
6:53 PM 80.1 °F 85.4 °F 75.9 °F 87% 29.95 in 10.0 mi East 6.9 mph - N/A   Clear
7:53 PM 79.0 °F - 77.0 °F 94% 29.96 in 10.0 mi ESE 4.6 mph - N/A   Partly Cloudy
8:53 PM 79.0 °F - 77.0 °F 94% 29.98 in 10.0 mi SE 3.5 mph - N/A   Clear
9:53 PM 79.0 °F - 77.0 °F 94% 30.00 in 10.0 mi Calm Calm - N/A   Partly Cloudy
10:12 PM 78.8 °F - 78.8 °F 100% 30.00 in 10.0 mi Calm Calm - N/A   Mostly Cloudy
10:53 PM 79.0 °F - 77.0 °F 94% 30.01 in 10.0 mi Calm Calm - N/A   Partly Cloudy
11:53 PM 78.1 °F - 77.0 °F 96% 30.00 in 10.0 mi Calm Calm - N/A   Clear